Voltar ao catálogo

DELTA 1 DEB

AtivoSSO
NORAD 7128·DEBRIS·🇺🇸 United States

Lançado Nov 6, 1973 de Vandenberg Space Force Base

Loading…

Próximas Passagens (próximas 24 horas)

TLE

AtualizadoSource: Space-Track

Época: Sep 13, 2026, 22:13 UTC

1 07128U 73086CS  26256.92635534  .00000116  00000-0  85979-3 0  9999
2 07128 101.6331  11.6374 0039816 234.7730 250.2736 12.65946419425159

Acompanhe DELTA 1 DEB em tempo real com AllMySat

Download on the App Store